COSMOS 1275 DEB, 12719

Orbit data source: Space-Track

COSMOS 1275 DEB, 12719 is space debris in LEO originally from a launch on Thu, 04 Jun 1981 UTC launched from the Plesetsk Missile And Space Complex (PKMTR). Debris objects in space refer to the collection of defunct objects orbiting the Earth. Examples of debris include non-operational satellites, rocket bodies, and fragments generated from explosions, collisions, or faulty payload assembly.

Loading next visibility...
Identifier
12719, 1981-053BL
Orbit
LEO
Country
Flag of CISCIS
Related business
Manufacturer
Unknown
Mission
Spacecraft
Bus & Motor
Unknown
Mass
Unknown
Launch date (UTC)
1981-06-04 (45 years ago)
Launch vehicle
Unknown
Launch site
Plesetsk Missile And Space Complex (PKMTR)
Object type
Payload
Rocket body
Debris
Shape & HBR
Unknown shape, 0.2 m
Radar Cross Section
Medium (>0.1 m² and <1 m²)

Expand to show TLE details & history
Last TLE update: 13 hours ago

TLE from 13 hours ago
0 COSMOS 1275 DEB
1 12719U 81053BL  26104.43776472  .00000399  00000-0  28632-3 0  9995
2 12719  82.9567  89.0211 0021790 168.6429 345.6391 13.94517617260682
Epoch: 2026-04-14T10:30Z
TLE epoch observation values (Epoch: 2026-04-14T10:30:22.871Z)
Latitude
25.60263°
Longitude
-94.56445°
Altitude
900.571 km
Speed
7.412 km/s
True Right ascension
17h 42m 34s
True Declination
25° 28' 17"
Sunlit
Object was in daylight at epoch
Visualization orbit readout
Latitude
Unknown
Longitude
Unknown
Altitude
Unknown
Speed
Unknown
Apparent Right ascension
Unknown
Apparent Declination
Unknown
Sunlit
N/A
Visualization observer readout
Local Sidereal Time
05:59:23
Azimuth
Unknown
Elevation
Unknown
Doppler factor
Unknown
Orbital elements
Apogee altitude
925.844 km
Perigee altitude
894.082 km
Semi-major axis
7,288.1 km
Eccentricity
0.00218
Inclination
82.9567°
RAAN
89.0211°
Arg. of periapsis
168.6429°
True anomaly
345.577°
Mean anomaly
345.6391°
Eccentric anomaly
345.60807°
Mean motion
3.48836 °/min
Orbital period
103.2 mins
BSTAR
0.00028632
Loading maneuver chart data...
Computing Atmospheric mass density...
Loading historical data...
Loading historical data...
Loading historical data...
Loading historical data...
Loading historical data...
Loading historical data...
Loading historical data...

Documentation

Showing up to 5 results
|